{"data":{"norad_id":46265,"epoch":"2026-09-20T03:42:40.317984Z","epoch_age_seconds":100013,"freshness":"FRESH","line1":"1 46265U 20059A   26263.15463331  .00000466  00000+0  65093-4 0  9996","line2":"2 46265  97.8908  87.6415 0001406  80.6219 279.5153 14.82149349327553","mean_motion":14.82149349,"eccentricity":0.0001406,"inclination_deg":97.8908,"raan_deg":87.6415,"arg_perigee_deg":80.6219,"mean_anomaly_deg":279.5153,"bstar":6.5093e-5,"rev_number":32755,"period_min":97.156200957182,"perigee_km":621.56358828523,"apogee_km":623.53218087478,"semimajor_km":7000.68488458,"source":"CELESTRAK","updated_at":"2026-09-20T09:00:14.753077Z"}}